Weather History for PHBK - November, 2012

Change the Weather History Date:

Wednesday, November 28, 2012

  Actual Average Record
Temperature  
Mean Temperature 72 °F -  
Max Temperature 79 °F 82 °F 87 °F (1977)
Min Temperature 66 °F 65 °F 58 °F (1969)
Cooling Degree Days 8    
Growing Degree Days 22 (Base 50)    
Moisture  
Dew Point 57 °F    
Average Humidity 58    
Maximum Humidity 73    
Minimum Humidity 48    
Precipitation  
Precipitation 0.00 in - - ()
Sea Level Pressure  
Sea Level Pressure 30.03 in    
Wind  
Wind Speed 4 mph (NNE)    
Max Wind Speed 10 mph    
Max Gust Speed -    
Visibility 10 miles    
Events      
Averages and records for this station are not official NWS values.
T = Trace of Precipitation, MM = Missing Value Source: NWS Daily Summary

Daily Weather History Graph

Daily Weather History Graph

Search for Another Location

Airport or City:

Trip Planner

Search our weather history database for the weather conditions in past years. The results will help you decide how hot, cold, wet, or windy it might be!

Date:

Astronomy

Nov. 28, 2012 Rise Set
Actual Time 7:00 AM HST 5:54 PM HST
Civil Twilight 6:35 AM HST 6:18 PM HST
Nautical Twilight 6:08 AM HST 6:46 PM HST
Astronomical Twilight 5:41 AM HST 7:13 PM HST
Moon 6:19 PM HST (11/28) 7:07 AM HST (11/28)
Length of Visible Light 11h 42m
Length of Day
10h 54m
Full, 100% of the Moon is Illuminated
Nov 28
Full
Dec 6
Last Quarter
Dec 12
New
Dec 19
First Quarter
Dec 28
Full

Hourly Weather History & Observations

Time (HST) Temp. Dew Point Humidity Pressure Visibility Wind Dir Wind Speed Gust Speed Precip Events Conditions
12:56 AM 70.0 °F 53.1 °F 55% 30.08 in 10.0 mi ESE 3.5 mph - N/A   Overcast
1:56 AM 70.0 °F 54.0 °F 57% 30.06 in 10.0 mi ESE 3.5 mph - N/A   Mostly Cloudy
2:56 AM 66.9 °F 54.0 °F 63% 30.04 in 10.0 mi ENE 4.6 mph - N/A   Partly Cloudy
3:56 AM 68.0 °F 54.0 °F 61% 30.03 in 10.0 mi NE 5.8 mph - N/A   Clear
4:56 AM 66.9 °F 54.0 °F 63% 30.04 in 10.0 mi ENE 4.6 mph - N/A   Mostly Cloudy
5:56 AM 69.1 °F 54.0 °F 58% 30.04 in 10.0 mi Calm Calm - N/A   Mostly Cloudy
6:56 AM 66.9 °F 53.1 °F 61% 30.05 in 10.0 mi ENE 3.5 mph - N/A   Partly Cloudy
7:56 AM 69.1 °F 55.0 °F 61% 30.07 in 10.0 mi East 3.5 mph - N/A   Scattered Clouds
8:56 AM 75.9 °F 55.0 °F 48% 30.08 in 10.0 mi South 3.5 mph - N/A   Scattered Clouds
9:56 AM 75.9 °F 57.9 °F 54% 30.08 in 10.0 mi WNW 5.8 mph - N/A   Clear
10:56 AM 77.0 °F 57.0 °F 50% 30.06 in 10.0 mi NW 8.1 mph - N/A   Mostly Cloudy
11:56 AM 78.1 °F 57.9 °F 50% 30.04 in 10.0 mi NNW 8.1 mph - N/A   Mostly Cloudy
12:56 PM 79.0 °F 59.0 °F 50% 30.01 in 10.0 mi NNW 10.4 mph - N/A   Partly Cloudy
1:56 PM 78.1 °F 59.0 °F 52% 29.98 in 10.0 mi NNW 5.8 mph - N/A   Mostly Cloudy
2:56 PM 79.0 °F 62.1 °F 56% 29.97 in 10.0 mi West 6.9 mph - N/A   Overcast
3:56 PM 79.0 °F 62.1 °F 56% 29.96 in 10.0 mi North 8.1 mph - N/A   Clear
4:56 PM 78.1 °F 61.0 °F 56% 29.97 in 10.0 mi NW 4.6 mph - N/A   Clear
5:56 PM 77.0 °F 61.0 °F 58% 29.99 in 10.0 mi NNW 4.6 mph - N/A   Clear
6:56 PM 73.0 °F 59.0 °F 61% 30.01 in 10.0 mi Calm Calm - N/A   Clear
7:56 PM 72.0 °F 57.9 °F 61% 30.04 in 10.0 mi Calm Calm - N/A   Mostly Cloudy
8:56 PM 72.0 °F 57.0 °F 59% 30.03 in 10.0 mi ESE 3.5 mph - N/A   Overcast
9:56 PM 69.1 °F 60.1 °F 73% 30.05 in 10.0 mi Calm Calm - N/A   Scattered Clouds
10:56 PM 69.1 °F 57.0 °F 65% 30.05 in 10.0 mi SSE 3.5 mph - N/A   Scattered Clouds
11:56 PM 70.0 °F 60.1 °F 71% 30.04 in 10.0 mi SE 5.8 mph - N/A   Mostly Cloudy